| time (UTC) | temp C | wind direction | speed KPH | gust KPH | rain 1hr cm | rain 24hr cm | rain mn cm | humidity % | barometer mb |
| 20260506193020 | 28 | 210 | 4.8 | 14.5 | 0.00 | 0.00 | 0.00 | 85 | 1008.0 |
| 20260506191520 | 28 | 200 | 1.6 | 9.7 | 0.00 | 0.00 | 0.00 | 85 | 1008.2 |
| 20260506190019 | 27 | 197 | 1.6 | 6.4 | 0.00 | 0.00 | 0.00 | 86 | 1008.3 |
| 20260506184518 | 28 | 204 | 0.0 | 8.0 | 0.00 | 0.00 | 0.00 | 85 | 1008.5 |
| 20260506183018 | 28 | 207 | 3.2 | 8.0 | 0.00 | 0.00 | 0.00 | 85 | 1008.6 |
| 20260506181517 | 28 | 162 | 0.0 | 9.7 | 0.00 | 0.00 | 0.00 | 85 | 1008.8 |
| 20260506180016 | 28 | 180 | 0.0 | 8.0 | 0.00 | 0.00 | 0.00 | 85 | 1008.8 |
| 20260506174517 | 28 | 207 | 3.2 | 8.0 | 0.00 | 0.00 | 0.00 | 85 | 1008.9 |
| 20260506173012 | 28 | 214 | 1.6 | 8.0 | 0.00 | 0.00 | 0.00 | 86 | 1009.1 |
| 20260506171512 | 27 | 208 | 3.2 | 8.0 | 0.00 | 0.00 | 0.00 | 85 | 1009.2 |
| 20260506170011 | 27 | 206 | 1.6 | 11.3 | 0.00 | 0.00 | 0.00 | 86 | 1009.3 |
| 20260506164514 | 28 | 201 | 3.2 | 8.0 | 0.00 | 0.00 | 0.00 | 85 | 1009.4 |
| 20260506163007 | 27 | 200 | 4.8 | 12.9 | 0.00 | 0.00 | 0.00 | 88 | 1009.1 |
| 20260506161503 | 26 | 200 | 1.6 | 6.4 | 0.00 | 0.00 | 0.00 | 90 | 1009.1 |
| 20260506160115 | 26 | 203 | 0.0 | 4.8 | 0.00 | 0.00 | 0.00 | 91 | 1009.2 |
| 20260506154557 | 26 | 217 | 3.2 | 8.0 | 0.00 | 0.00 | 0.00 | 91 | 1008.8 |
| 20260506153055 | 26 | 197 | 1.6 | 8.0 | 0.00 | 0.00 | 0.00 | 91 | 1008.7 |
| 20260506151554 | 26 | 211 | 1.6 | 8.0 | 0.00 | 0.00 | 0.00 | 92 | 1008.6 |
| 20260506150052 | 26 | 207 | 1.6 | 4.8 | 0.00 | 0.00 | 0.00 | 92 | 1008.3 |
| 20260506144552 | 25 | 203 | 1.6 | 4.8 | 0.00 | 0.00 | 0.00 | 93 | 1008.1 |
| 20260506143048 | 25 | 209 | 1.6 | 4.8 | 0.00 | 0.00 | 0.00 | 94 | 1008.2 |
| 20260506141547 | 25 | 214 | 0.0 | 6.4 | 0.00 | 0.00 | 0.00 | 93 | 1008.4 |
| 20260506140047 | 25 | 212 | 0.0 | 3.2 | 0.00 | 0.00 | 0.00 | 93 | 1008.4 |
| 20260506134548 | 25 | 199 | 0.0 | 3.2 | 0.00 | 0.00 | 0.00 | 94 | 1008.3 |
| 20260506133043 | 25 | 212 | 0.0 | 3.2 | 0.00 | 0.00 | 0.00 | 94 | 1008.5 |
| 20260506131556 | 25 | 200 | 1.6 | 6.4 | 0.00 | 0.00 | 0.00 | 94 | 1008.5 |
| 20260506130048 | 25 | 198 | 0.0 | 4.8 | 0.00 | 0.00 | 0.00 | 95 | 1008.5 |
| 20260506124539 | 25 | 209 | 0.0 | 4.8 | 0.00 | 0.00 | 0.00 | 94 | 1008.2 |
| 20260506123039 | 24 | 205 | 0.0 | 4.8 | 0.00 | 0.00 | 0.00 | 94 | 1008.2 |
| 20260506121538 | 24 | 204 | 1.6 | 4.8 | 0.00 | 0.00 | 0.00 | 95 | 1008.1 |
| 20260506120038 | 24 | 216 | 0.0 | 6.4 | 0.00 | 0.00 | 0.00 | 95 | 1007.8 |
| 20260506114537 | 24 | 203 | 0.0 | 3.2 | 0.00 | 0.00 | 0.00 | 95 | 1007.6 |
| 20260506113037 | 24 | 203 | 0.0 | 4.8 | 0.00 | 0.00 | 0.00 | 95 | 1007.5 |
| 20260506111536 | 24 | 208 | 0.0 | 3.2 | 0.00 | 0.00 | 0.00 | 96 | 1007.3 |
| 20260506110036 | 23 | 207 | 1.6 | 4.8 | 0.00 | 0.00 | 0.00 | 95 | 1007.3 |
| 20260506104535 | 23 | 203 | 0.0 | 4.8 | 0.00 | 0.00 | 0.00 | 95 | 1007.3 |
| 20260506103039 | 24 | 208 | 1.6 | 8.0 | 0.00 | 0.00 | 0.00 | 95 | 1007.3 |
| 20260506101533 | 24 | 209 | 0.0 | 3.2 | 0.00 | 0.00 | 0.00 | 95 | 1007.1 |
| 20260506100037 | 24 | 203 | 0.0 | 4.8 | 0.00 | 0.00 | 0.00 | 94 | 1007.0 |
| 20260506094543 | 24 | 214 | 0.0 | 4.8 | 0.00 | 0.00 | 0.00 | 94 | 1006.9 |
| 20260506093034 | 24 | 203 | 1.6 | 6.4 | 0.00 | 0.00 | 0.00 | 94 | 1007.1 |
| 20260506091531 | 24 | 214 | 0.0 | 4.8 | 0.00 | 0.00 | 0.00 | 95 | 1007.1 |
| 20260506090026 | 24 | 208 | 0.0 | 3.2 | 0.00 | 0.00 | 0.00 | 94 | 1007.1 |
| 20260506084525 | 24 | 200 | 0.0 | 8.0 | 0.00 | 0.00 | 0.00 | 94 | 1007.3 |
| 20260506083022 | 24 | 196 | 1.6 | 8.0 | 0.00 | 0.00 | 0.00 | 94 | 1007.3 |
| 20260506081524 | 24 | 214 | 1.6 | 6.4 | 0.00 | 0.00 | 0.00 | 94 | 1007.5 |
| 20260506073016 | 24 | 197 | 0.0 | 4.8 | 0.00 | 0.00 | 0.00 | 93 | 1008.0 |
| 20260506071515 | 24 | 200 | 0.0 | 6.4 | 0.00 | 0.00 | 0.00 | 93 | 1008.1 |
| 20260506061514 | 24 | 213 | 3.2 | 11.3 | 0.00 | 0.00 | 0.00 | 92 | 1007.9 |
| 20260506044501 | 25 | 134 | 4.8 | 12.9 | 0.00 | 0.00 | 0.00 | 92 | 1008.0 |
| 20260506043100 | 25 | 202 | 3.2 | 12.9 | 0.00 | 0.00 | 0.00 | 91 | 1007.9 |
| 20260506041600 | 25 | 212 | 3.2 | 11.3 | 0.00 | 0.00 | 0.00 | 91 | 1007.9 |
| 20260506040100 | 25 | 204 | 3.2 | 8.0 | 0.00 | 0.00 | 0.00 | 91 | 1008.0 |
| 20260506034600 | 25 | 196 | 4.8 | 12.9 | 0.00 | 0.00 | 0.00 | 92 | 1008.0 |
| 20260506033058 | 25 | 186 | 3.2 | 16.1 | 0.00 | 0.00 | 0.00 | 92 | 1007.9 |
| 20260506031559 | 25 | 221 | 3.2 | 16.1 | 0.00 | 0.00 | 0.00 | 92 | 1007.8 |
| 20260506030058 | 25 | 206 | 4.8 | 11.3 | 0.00 | 0.00 | 0.00 | 91 | 1007.7 |
| 20260506024601 | 25 | 185 | 3.2 | 9.7 | 0.00 | 0.00 | 0.00 | 92 | 1007.5 |
| 20260506023100 | 25 | 165 | 3.2 | 12.9 | 0.00 | 0.00 | 0.00 | 92 | 1007.3 |
| 20260506021555 | 24 | 212 | 1.6 | 8.0 | 0.00 | 0.00 | 0.00 | 92 | 1007.0 |
| 20260506020055 | 24 | 198 | 3.2 | 8.0 | 0.00 | 0.00 | 0.00 | 92 | 1006.8 |
| 20260506014554 | 25 | 203 | 1.6 | 9.7 | 0.00 | 0.00 | 0.00 | 91 | 1006.7 |
| 20260506013053 | 25 | 209 | 3.2 | 11.3 | 0.00 | 0.00 | 0.00 | 91 | 1006.5 |
| 20260506011552 | 25 | 162 | 3.2 | 9.7 | 0.00 | 0.00 | 0.00 | 90 | 1006.2 |
| 20260506010052 | 25 | 174 | 4.8 | 12.9 | 0.00 | 0.00 | 0.00 | 89 | 1006.1 |
| 20260506004552 | 25 | 210 | 4.8 | 12.9 | 0.00 | 0.00 | 0.00 | 89 | 1006.0 |
| 20260506003050 | 25 | 200 | 4.8 | 14.5 | 0.00 | 0.00 | 0.00 | 88 | 1005.9 |
| 20260506001551 | 25 | 191 | 6.4 | 17.7 | 0.00 | 0.00 | 0.00 | 88 | 1005.9 |
| 20260506000048 | 26 | 179 | 3.2 | 17.7 | 0.00 | 0.00 | 0.00 | 87 | 1005.9 |
| 20260505234550 | 26 | 205 | 4.8 | 17.7 | 0.00 | 0.00 | 0.00 | 87 | 1005.8 |
| 20260505233046 | 26 | 184 | 6.4 | 16.1 | 0.00 | 0.00 | 0.00 | 87 | 1006.0 |
| 20260505231558 | 26 | 213 | 8.0 | 19.3 | 0.00 | 0.00 | 0.00 | 86 | 1006.0 |
| 20260505230055 | 26 | 204 | 6.4 | 16.1 | 0.00 | 0.00 | 0.00 | 85 | 1006.1 |
| 20260505224547 | 26 | 188 | 8.0 | 17.7 | 0.00 | 0.00 | 0.00 | 84 | 1005.9 |
| 20260505223041 | 27 | 222 | 8.0 | 24.1 | 0.00 | 0.00 | 0.00 | 84 | 1006.1 |
| 20260505221541 | 27 | 125 | 6.4 | 14.5 | 0.00 | 0.00 | 0.00 | 85 | 1006.1 |
| 20260505220039 | 26 | 215 | 8.0 | 14.5 | 0.00 | 0.00 | 0.00 | 86 | 1006.2 |
| 20260505214537 | 26 | 200 | 4.8 | 16.1 | 0.00 | 0.00 | 0.00 | 86 | 1006.5 |
| 20260505213044 | 26 | 143 | 4.8 | 16.1 | 0.00 | 0.00 | 0.00 | 86 | 1006.5 |
| 20260505211535 | 27 | 145 | 6.4 | 17.7 | 0.00 | 0.00 | 0.00 | 85 | 1006.7 |
| 20260505210035 | 26 | 194 | 8.0 | 17.7 | 0.00 | 0.00 | 0.00 | 86 | 1006.8 |
| 20260505204531 | 26 | 205 | 4.8 | 14.5 | 0.00 | 0.00 | 0.00 | 86 | 1007.1 |
| 20260505203029 | 27 | 167 | 4.8 | 11.3 | 0.00 | 0.00 | 0.00 | 85 | 1007.2 |
| 20260505201528 | 27 | 188 | 4.8 | 16.1 | 0.00 | 0.00 | 0.00 | 85 | 1007.5 |
| 20260505200029 | 26 | 163 | 8.0 | 17.7 | 0.00 | 0.00 | 0.00 | 85 | 1007.6 |
| 20260505194528 | 27 | 178 | 6.4 | 17.7 | 0.00 | 0.00 | 0.00 | 85 | 1007.7 |